Location: Sevilla
(37.3933°N, 5.9839°W)
Time: 05:43:20
(UTC+02:00)

Transit 2A Rocket - Pass Details

Date: 29 June 2024
Orbit: 582 x 910 km, 66.7° (Epoch: 15 July)

Event Time Altitude Azimuth Distance (km) Brightness Sun altitude
Rises 19:34:15 0° 175° (S) 3,030 7.9 24.0°
Reaches altitude 10° 19:36:46 10° 163° (SSE) 2,174 7.2 23.6°
Maximum altitude 19:40:53 26° 107° (ESE) 1,434 6.1 22.8°
Drops below altitude 10° 19:45:21 10° 51° (NE) 2,371 7.3 21.9°
Sets 19:48:13 0° 40° (NE) 3,363 8.1 21.3°
